Thunderstorms From: 22-05-2018 15:00 Until: 23-05-2018 15:00 warning for: Thunderstorms Level: Yellow info button

Although rather usual in this region, locally or potentially dangerous phenomena are expected. (such as local winds, summer thunderstorms, rising streams or high waves) Be aware and pay attention to the latest weather updates, especially if you carry out activities exposed to weather or close to a stream or shoreline. 


Meteo18 Weather Cam more information Meteo18 Weather Cam


warning for Thunderstorms more information blitzortung!


Rain radar more information rain snow radar


Visit our other weather sites:

Template documentation
and downloads

And another site



Weather Underground History page Text

Daily Summary for January 4, 2017 Units:  Metric    English   Both
« Previous Day
Next Day »
Daily Weekly Monthly Yearly Custom
  High: Low: Average:
Temperature: -17.8 °C -19.2 °C -18.2 °C
Dew Point: -17.8 °C -19.4 °C -18.4 °C
Humidity: Humidity % 95 % 96 %
Wind Speed: 0 km/h 0 km/h 9.7 km/h
Wind Gust: 0 km/h - -
Wind:- - WSW
Pressure: 0 hPa 34703.1 hPa -
Precipitation: 12.7 mm    
Historical Graphs
 
 
Tabular Data for January 4, 2017
Time Temperature Dew Point Pressure Wind Wind Speed Wind Gust Humidity Rainfall Rate (Hourly)
-17.8 °C -17.8 °C 0 hPa Calm     Humidity % 0 mm
00:02 -19.1 °C -19.3 °C 34889.3 hPa SW 7.7 km/h 18.2 km/h 97 % 0 mm
00:07 -19.1 °C -19.3 °C 34889.3 hPa SSW 10.3 km/h 15.6 km/h 97 % 0 mm
00:12 -19 °C -19.2 °C 34889.3 hPa WSW 12.9 km/h 20.8 km/h 97 % 0 mm
00:17 -19 °C -19.2 °C 34875.8 hPa SSW 7.7 km/h 20.8 km/h 97 % 0 mm
00:22 -19 °C -19.2 °C 34875.8 hPa WSW 5.1 km/h 20.8 km/h 97 % 0 mm
00:32 -18.9 °C -19.2 °C 34875.8 hPa Calm   15.6 km/h 97 % 0 mm
00:42 -18.9 °C -19.2 °C 34875.8 hPa WSW 2.6 km/h 15.6 km/h 97 % 0 mm
00:47 -18.9 °C -19.1 °C 34875.8 hPa SW 10.3 km/h 12.9 km/h 97 % 0 mm
00:52 -18.8 °C -19.1 °C 34875.8 hPa SW 5.1 km/h 12.9 km/h 97 % 0 mm
00:57 -18.8 °C -19.1 °C 34875.8 hPa West 10.3 km/h 12.9 km/h 97 % 0 mm
01:02 -18.8 °C -19.1 °C 34865.6 hPa SW 2.6 km/h 12.9 km/h 97 % 0 mm
01:12 -18.8 °C -19.1 °C 34865.6 hPa SW 2.6 km/h 12.9 km/h 97 % 0 mm
01:17 -18.9 °C -19.1 °C 34852.1 hPa WSW 7.7 km/h 12.9 km/h 97 % 0 mm
01:22 -18.9 °C -19.2 °C 34852.1 hPa SW 10.3 km/h 12.9 km/h 97 % 0 mm
01:27 -18.9 °C -19.2 °C 34852.1 hPa Calm   12.9 km/h 97 % 0 mm
01:32 -18.9 °C -19.2 °C 34852.1 hPa WSW 5.1 km/h 15.6 km/h 97 % 0 mm
01:37 -18.9 °C -19.2 °C 34852.1 hPa West 5.1 km/h 15.6 km/h 97 % 0 mm
01:42 -18.9 °C -19.2 °C 34852.1 hPa West 15.6 km/h 15.6 km/h 97 % 0 mm
01:47 -19 °C -19.2 °C 34852.1 hPa WSW 12.9 km/h 20.8 km/h 97 % 0 mm
01:52 -19 °C -19.2 °C 34852.1 hPa SW 12.9 km/h 20.8 km/h 97 % 0 mm
01:57 -19 °C -19.2 °C 34852.1 hPa SW 20.8 km/h 20.8 km/h 97 % 0 mm
02:02 -19 °C -19.2 °C 34852.1 hPa SW 15.6 km/h 25.9 km/h 97 % 0 mm
02:07 -19 °C -19.2 °C 34852.1 hPa WSW 5.1 km/h 25.9 km/h 97 % 0 mm
02:12 -19 °C -19.2 °C 34841.9 hPa WSW 2.6 km/h 23.3 km/h 97 % 0 mm
02:17 -19 °C -19.2 °C 34841.9 hPa WSW 5.1 km/h 18.2 km/h 97 % 0 mm
02:22 -19 °C -19.2 °C 34852.1 hPa SW 10.3 km/h 15.6 km/h 97 % 0 mm
02:27 -19 °C -19.2 °C 34841.9 hPa SW 5.1 km/h 15.6 km/h 97 % 0 mm
02:32 -19 °C -19.2 °C 34831.8 hPa SW 20.8 km/h 20.8 km/h 97 % 0 mm
02:37 -19 °C -19.2 °C 34841.9 hPa WSW 12.9 km/h 20.8 km/h 97 % 0 mm
02:42 -19 °C -19.2 °C 34841.9 hPa WSW 7.7 km/h 20.8 km/h 97 % 0 mm
02:47 -18.9 °C -19.2 °C 34841.9 hPa SSW 7.7 km/h 20.8 km/h 97 % 0 mm
02:52 -18.9 °C -19.2 °C 34841.9 hPa SW 10.3 km/h 20.8 km/h 97 % 0 mm
02:57 -18.9 °C -19.2 °C 34852.1 hPa SW 5.1 km/h 20.8 km/h 97 % 0 mm
03:02 -18.9 °C -19.2 °C 34852.1 hPa WSW 2.6 km/h 18.2 km/h 97 % 0 mm
03:07 -18.9 °C -19.2 °C 34852.1 hPa SW 5.1 km/h 12.9 km/h 97 % 0 mm
03:12 -18.9 °C -19.2 °C 34852.1 hPa WSW 5.1 km/h 12.9 km/h 97 % 0 mm
03:17 -18.9 °C -19.2 °C 34852.1 hPa WSW 7.7 km/h 10.3 km/h 97 % 0 mm
03:22 -19 °C -19.2 °C 34852.1 hPa West 10.3 km/h 10.3 km/h 97 % 0 mm
03:27 -19.1 °C -19.3 °C 34852.1 hPa West 7.7 km/h 15.6 km/h 97 % 0 mm
03:32 -19.1 °C -19.3 °C 34852.1 hPa West 7.7 km/h 18.2 km/h 97 % 0 mm
03:37 -19.1 °C -19.3 °C 34852.1 hPa SW 12.9 km/h 18.2 km/h 97 % 0 mm
03:42 -19.1 °C -19.3 °C 34852.1 hPa SSW 10.3 km/h 12.9 km/h 97 % 0 mm
03:52 -19.1 °C -19.3 °C 34841.9 hPa SW 7.7 km/h 12.9 km/h 97 % 0 mm
03:57 -19.1 °C -19.3 °C 34841.9 hPa SW 7.7 km/h 12.9 km/h 97 % 0 mm
04:02 -19.1 °C -19.3 °C 34831.8 hPa Calm   12.9 km/h 97 % 0 mm
04:07 -19.1 °C -19.3 °C 34831.8 hPa WSW 7.7 km/h 12.9 km/h 97 % 0 mm
04:12 -19.1 °C -19.3 °C 34831.8 hPa WSW 2.6 km/h 12.9 km/h 97 % 0 mm
04:17 -19.1 °C -19.3 °C 34831.8 hPa West 2.6 km/h 12.9 km/h 97 % 0 mm
04:22 -19.1 °C -19.3 °C 34831.8 hPa WSW 5.1 km/h 12.9 km/h 97 % 0 mm
04:27 -19.1 °C -19.3 °C 34831.8 hPa West 5.1 km/h 12.9 km/h 97 % 0 mm
04:32 -19.1 °C -19.3 °C 34831.8 hPa SW 7.7 km/h 12.9 km/h 97 % 0 mm
04:37 -19.1 °C -19.3 °C 34831.8 hPa WSW 2.6 km/h 18.2 km/h 97 % 0 mm
04:42 -19.1 °C -19.3 °C 34831.8 hPa SW 5.1 km/h 18.2 km/h 97 % 0 mm
04:47 -19.1 °C -19.3 °C 34831.8 hPa WNW 5.1 km/h 20.8 km/h 97 % 0 mm
04:52 -19.1 °C -19.3 °C 34831.8 hPa West 7.7 km/h 20.8 km/h 97 % 0 mm
04:57 -19.1 °C -19.3 °C 34831.8 hPa WSW 7.7 km/h 18.2 km/h 97 % 0 mm
05:02 -19.1 °C -19.3 °C 34831.8 hPa SSW 5.1 km/h 18.2 km/h 97 % 0 mm
05:07 -19.1 °C -19.3 °C 34831.8 hPa SSW 7.7 km/h 20.8 km/h 97 % 0 mm
05:12 -19.1 °C -19.3 °C 34818.2 hPa SW 15.6 km/h 20.8 km/h 97 % 0 mm
05:17 -19.1 °C -19.3 °C 34818.2 hPa SSW 7.7 km/h 20.8 km/h 97 % 0 mm
05:22 -19.1 °C -19.3 °C 34818.2 hPa SSW 7.7 km/h 25.9 km/h 97 % 0 mm
05:32 -19.1 °C -19.3 °C 34818.2 hPa SW 10.3 km/h 23.3 km/h 97 % 0 mm
05:37 -19.1 °C -19.3 °C 34818.2 hPa SW 5.1 km/h 23.3 km/h 97 % 0 mm
05:42 -19.1 °C -19.3 °C 34818.2 hPa SSW 10.3 km/h 23.3 km/h 97 % 0 mm
05:47 -19.1 °C -19.3 °C 34818.2 hPa SSW 12.9 km/h 20.8 km/h 97 % 0 mm
05:52 -19.1 °C -19.3 °C 34818.2 hPa WSW 5.1 km/h 20.8 km/h 97 % 0 mm
05:57 -19.1 °C -19.3 °C 34808.1 hPa WSW 5.1 km/h 20.8 km/h 97 % 0 mm
06:02 -19.1 °C -19.3 °C 34808.1 hPa WSW 10.3 km/h 18.2 km/h 97 % 0 mm
06:07 -19.1 °C -19.3 °C 34808.1 hPa SSW 5.1 km/h 18.2 km/h 97 % 0 mm
06:12 -19.1 °C -19.3 °C 34808.1 hPa SW 7.7 km/h 15.6 km/h 97 % 0 mm
06:17 -19 °C -19.2 °C 34797.9 hPa SW 15.6 km/h 20.8 km/h 97 % 0 mm
06:22 -19.1 °C -19.3 °C 34797.9 hPa SW 7.7 km/h 23.3 km/h 97 % 0 mm
06:32 -19.1 °C -19.3 °C 34797.9 hPa SW 5.1 km/h 23.3 km/h 97 % 0 mm
06:37 -19.1 °C -19.3 °C 34797.9 hPa SW 2.6 km/h 20.8 km/h 97 % 0 mm
06:42 -19.1 °C -19.3 °C 34797.9 hPa WNW 7.7 km/h 18.2 km/h 97 % 0 mm
06:47 -19.1 °C -19.3 °C 34797.9 hPa SW 12.9 km/h 18.2 km/h 97 % 0 mm
06:57 -19.1 °C -19.3 °C 34797.9 hPa SW 15.6 km/h 20.8 km/h 97 % 0 mm
07:02 -19.1 °C -19.3 °C 34797.9 hPa SW 7.7 km/h 20.8 km/h 97 % 0 mm
07:07 -19.1 °C -19.3 °C 34797.9 hPa SW 5.1 km/h 23.3 km/h 97 % 0 mm
07:12 -19.1 °C -19.3 °C 34797.9 hPa SW 10.3 km/h 23.3 km/h 97 % 0 mm
07:17 -19.1 °C -19.3 °C 34797.9 hPa SW 2.6 km/h 20.8 km/h 97 % 0 mm
07:22 -19.1 °C -19.3 °C 34797.9 hPa SSW 5.1 km/h 12.9 km/h 97 % 0 mm
07:27 -19.1 °C -19.3 °C 34797.9 hPa SSW 10.3 km/h 20.8 km/h 97 % 0 mm
07:32 -19.1 °C -19.3 °C 34797.9 hPa WSW 15.6 km/h 23.3 km/h 97 % 0 mm
07:37 -19.1 °C -19.3 °C 34784.4 hPa WSW 12.9 km/h 25.9 km/h 97 % 0 mm
07:42 -19.1 °C -19.3 °C 34784.4 hPa West 10.3 km/h 25.9 km/h 97 % 0 mm
07:47 -19.1 °C -19.3 °C 34797.9 hPa West 7.7 km/h 25.9 km/h 97 % 0 mm
07:52 -19.1 °C -19.3 °C 34797.9 hPa SW 12.9 km/h 25.9 km/h 97 % 0 mm
07:57 -19.1 °C -19.3 °C 34797.9 hPa SW 7.7 km/h 20.8 km/h 97 % 0 mm
08:02 -19.2 °C -19.4 °C 34797.9 hPa SW 15.6 km/h 20.8 km/h 97 % 0 mm
08:07 -19.1 °C -19.3 °C 34797.9 hPa SW 10.3 km/h 20.8 km/h 97 % 0 mm
08:12 -19.1 °C -19.3 °C 34797.9 hPa WSW 12.9 km/h 20.8 km/h 97 % 0 mm
08:17 -19.1 °C -19.3 °C 34784.4 hPa WSW 18.2 km/h 18.2 km/h 97 % 0 mm
08:22 -19.1 °C -19.3 °C 34784.4 hPa WSW 18.2 km/h 23.3 km/h 97 % 0 mm
08:27 -19.1 °C -19.3 °C 34797.9 hPa WSW 15.6 km/h 23.3 km/h 97 % 0 mm
08:32 -19.1 °C -19.3 °C 34797.9 hPa SW 12.9 km/h 23.3 km/h 97 % 0 mm
08:37 -19.1 °C -19.3 °C 34797.9 hPa WSW 12.9 km/h 23.3 km/h 97 % 0 mm
08:42 -19.1 °C -19.3 °C 34797.9 hPa WSW 10.3 km/h 18.2 km/h 97 % 0 mm
08:47 -19 °C -19.2 °C 34797.9 hPa SW 18.2 km/h 18.2 km/h 97 % 0 mm
08:57 -19 °C -19.2 °C 34797.9 hPa SW 10.3 km/h 23.3 km/h 97 % 0 mm
09:02 -19 °C -19.2 °C 34797.9 hPa WSW 15.6 km/h 23.3 km/h 97 % 0 mm
09:07 -19.1 °C -19.3 °C 34797.9 hPa WSW 12.9 km/h 20.8 km/h 97 % 0 mm
09:12 -19.1 °C -19.3 °C 34797.9 hPa WSW 10.3 km/h 20.8 km/h 97 % 0 mm
09:17 -19.1 °C -19.3 °C 34797.9 hPa SW 10.3 km/h 20.8 km/h 97 % 0 mm
09:22 -19.1 °C -19.3 °C 34797.9 hPa WSW 7.7 km/h 20.8 km/h 97 % 0 mm
09:32 -19 °C -19.2 °C 34797.9 hPa SW 10.3 km/h 20.8 km/h 97 % 0 mm
09:37 -19 °C -19.2 °C 34797.9 hPa SW 10.3 km/h 20.8 km/h 97 % 0 mm
09:42 -19 °C -19.2 °C 34797.9 hPa Calm   20.8 km/h 97 % 0 mm
09:52 -19 °C -19.2 °C 34797.9 hPa WSW 5.1 km/h 20.8 km/h 97 % 0 mm
09:57 -19 °C -19.2 °C 34797.9 hPa WSW 2.6 km/h 20.8 km/h 97 % 0 mm
10:02 -19 °C -19.2 °C 34797.9 hPa SW 7.7 km/h 20.8 km/h 97 % 0 mm
10:07 -19 °C -19.2 °C 34797.9 hPa West 5.1 km/h 18.2 km/h 97 % 0 mm
10:12 -18.9 °C -19.2 °C 34797.9 hPa SW 5.1 km/h 12.9 km/h 97 % 0 mm
10:17 -18.9 °C -19.2 °C 34797.9 hPa WSW 5.1 km/h 12.9 km/h 97 % 0 mm
10:22 -18.9 °C -19.2 °C 34797.9 hPa Calm   12.9 km/h 97 % 0 mm
10:27 -18.9 °C -19.2 °C 34797.9 hPa SW 5.1 km/h 12.9 km/h 97 % 0 mm
10:32 -18.9 °C -19.1 °C 34797.9 hPa WSW 12.9 km/h 12.9 km/h 97 % 0 mm
10:37 -18.9 °C -19.1 °C 34797.9 hPa SW 18.2 km/h 18.2 km/h 97 % 0 mm
10:42 -18.9 °C -19.1 °C 34797.9 hPa Calm   23.3 km/h 97 % 0 mm
10:47 -18.8 °C -19.1 °C 34797.9 hPa Calm   23.3 km/h 97 % 0 mm
10:52 -18.8 °C -19.1 °C 34797.9 hPa WSW 10.3 km/h 23.3 km/h 97 % 0 mm
10:57 -18.8 °C -19.1 °C 34797.9 hPa WSW 23.3 km/h 23.3 km/h 97 % 0 mm
11:02 -18.8 °C -19 °C 34797.9 hPa SW 5.1 km/h 23.3 km/h 97 % 0 mm
11:07 -18.8 °C -19 °C 34797.9 hPa West 15.6 km/h 23.3 km/h 97 % 0 mm
11:12 -18.8 °C -19 °C 34797.9 hPa WSW 10.3 km/h 23.3 km/h 97 % 0 mm
11:17 -18.7 °C -18.9 °C 34797.9 hPa WSW 12.9 km/h 23.3 km/h 97 % 0 mm
11:22 -18.7 °C -18.9 °C 34797.9 hPa West 15.6 km/h 23.3 km/h 97 % 0 mm
11:32 -18.7 °C -18.9 °C 34784.4 hPa West 15.6 km/h 25.9 km/h 97 % 0 mm
11:37 -18.7 °C -18.9 °C 34784.4 hPa WSW 18.2 km/h 28.5 km/h 97 % 0 mm
11:42 -18.7 °C -18.9 °C 34784.4 hPa West 18.2 km/h 28.5 km/h 97 % 0 mm
11:47 -18.7 °C -18.9 °C 34774.2 hPa West 7.7 km/h 31.1 km/h 97 % 0 mm
11:52 -18.7 °C -18.9 °C 34774.2 hPa West 10.3 km/h 31.1 km/h 97 % 0 mm
12:02 -18.6 °C -18.8 °C 34784.4 hPa WSW 10.3 km/h 25.9 km/h 97 % 0 mm
12:07 -18.6 °C -18.8 °C 34784.4 hPa WNW 2.6 km/h 23.3 km/h 97 % 0 mm
12:12 -18.6 °C -18.8 °C 34784.4 hPa WNW 7.7 km/h 20.8 km/h 97 % 0 mm
12:17 -18.5 °C -18.7 °C 34784.4 hPa West 5.1 km/h 15.6 km/h 97 % 0 mm
12:22 -18.6 °C -18.8 °C 34784.4 hPa West 5.1 km/h 15.6 km/h 97 % 0 mm
12:27 -18.5 °C -18.7 °C 34784.4 hPa WSW 2.6 km/h 15.6 km/h 97 % 0 mm
12:32 -18.5 °C -18.7 °C 34774.2 hPa WSW 5.1 km/h 15.6 km/h 97 % 0 mm
12:37 -18.4 °C -18.7 °C 34774.2 hPa WSW 7.7 km/h 10.3 km/h 97 % 0 mm
12:42 -18.4 °C -18.7 °C 34774.2 hPa WSW 10.3 km/h 20.8 km/h 97 % 0 mm
12:47 -18.4 °C -18.7 °C 34774.2 hPa West 7.7 km/h 20.8 km/h 97 % 0 mm
12:57 -18.4 °C -18.6 °C 34760.7 hPa West 12.9 km/h 25.9 km/h 97 % 0 mm
13:02 -18.4 °C -18.6 °C 34760.7 hPa West 5.1 km/h 25.9 km/h 97 % 0 mm
13:07 -18.3 °C -18.6 °C 34760.7 hPa WSW 12.9 km/h 25.9 km/h 97 % 0 mm
13:12 -18.3 °C -18.4 °C 34760.7 hPa WSW 18.2 km/h 23.3 km/h 98 % 0 mm
13:17 -18.3 °C -18.5 °C 34760.7 hPa WNW 23.3 km/h 23.3 km/h 97 % 0 mm
13:22 -18.3 °C -18.5 °C 34760.7 hPa West 18.2 km/h 25.9 km/h 97 % 0 mm
13:27 -18.3 °C -18.5 °C 34760.7 hPa West 20.8 km/h 28.5 km/h 97 % 0 mm
13:37 -18.2 °C -18.4 °C 34750.5 hPa West 15.6 km/h 28.5 km/h 97 % 0 mm
13:42 -18.2 °C -18.4 °C 34740.4 hPa WSW 31.1 km/h 31.1 km/h 97 % 0 mm
13:47 -18.2 °C -18.4 °C 34740.4 hPa West 18.2 km/h 41.4 km/h 97 % 0 mm
13:57 -18.1 °C -18.3 °C 34726.8 hPa West 10.3 km/h 41.4 km/h 97 % 0 mm
14:02 -18.1 °C -18.3 °C 34726.8 hPa West 28.5 km/h 36.2 km/h 97 % 0 mm
14:12 -18 °C -18.2 °C 34726.8 hPa West 15.6 km/h 38.8 km/h 97 % 0 mm
14:17 -17.9 °C -18.2 °C 34726.8 hPa West 15.6 km/h 38.8 km/h 97 % 0 mm
14:27 -17.9 °C -18.1 °C 34703.1 hPa WSW 18.2 km/h 36.2 km/h 97 % 0 mm
14:32 -17.8 °C -18.1 °C 34703.1 hPa West 15.6 km/h 36.2 km/h 97 % 0 mm
14:42 -17.8 °C -18.2 °C 34703.1 hPa West 20.8 km/h 31.1 km/h 96 % 0 mm
14:47 -17.8 °C -18.1 °C 34703.1 hPa WSW 15.6 km/h 38.8 km/h 96 % 0 mm
14:52 -17.7 °C -18.1 °C 34703.1 hPa WNW 12.9 km/h 38.8 km/h 96 % 0 mm
14:57 -17.7 °C -18 °C 34703.1 hPa West 10.3 km/h 38.8 km/h 96 % 0 mm
15:02 -17.7 °C -18.1 °C 34703.1 hPa WNW 28.5 km/h 38.8 km/h 95 % 0 mm
15:12 -17.7 °C -18.1 °C 34703.1 hPa WNW 12.9 km/h 38.8 km/h 95 % 0 mm
15:17 -17.6 °C -18 °C 34716.7 hPa WNW 2.6 km/h 38.8 km/h 95 % 0 mm
15:22 -17.6 °C -17.9 °C 34716.7 hPa SW 5.1 km/h 38.8 km/h 95 % 0 mm
15:27 -17.6 °C -17.9 °C 34716.7 hPa West 2.6 km/h 25.9 km/h 95 % 0 mm
15:32 -17.6 °C -17.9 °C 34716.7 hPa WNW 2.6 km/h 15.6 km/h 95 % 0 mm
15:37 -17.5 °C -17.9 °C 34716.7 hPa WSW 2.6 km/h 15.6 km/h 95 % 0 mm
15:42 -17.4 °C -17.8 °C 34716.7 hPa West 2.6 km/h 20.8 km/h 95 % 0 mm
15:47 -17.4 °C -17.8 °C 34716.7 hPa West 10.3 km/h 20.8 km/h 95 % 0 mm
15:52 -17.4 °C -17.8 °C 34716.7 hPa Calm   18.2 km/h 95 % 0 mm
15:57 -17.4 °C -17.8 °C 34726.8 hPa WSW 7.7 km/h 15.6 km/h 95 % 0 mm
16:17 -17.4 °C -17.8 °C 34716.7 hPa SSW 7.7 km/h 7.7 km/h 95 % 0 mm
16:22 -17.3 °C -17.7 °C 34716.7 hPa SW 2.6 km/h 10.3 km/h 96 % 0 mm
16:27 -17.3 °C -17.7 °C 34716.7 hPa SW 10.3 km/h 10.3 km/h 96 % 0 mm
16:32 -17.3 °C -17.6 °C 34716.7 hPa SW 7.7 km/h 12.9 km/h 96 % 0 mm
16:37 -17.3 °C -17.6 °C 34716.7 hPa WNW 2.6 km/h 12.9 km/h 96 % 0 mm
16:47 -17.2 °C -17.6 °C 34716.7 hPa West 2.6 km/h 15.6 km/h 96 % 0 mm
16:52 -17.2 °C -17.5 °C 34716.7 hPa West 5.1 km/h 15.6 km/h 96 % 0 mm
17:02 -17.2 °C -17.6 °C 34716.7 hPa WSW 7.7 km/h 12.9 km/h 95 % 0 mm
17:07 -17.1 °C -17.5 °C 34716.7 hPa WNW 7.7 km/h 18.2 km/h 95 % 0 mm
17:27 -17 °C -17.4 °C 34716.7 hPa West 5.1 km/h 20.8 km/h 95 % 0 mm
17:32 -17 °C -17.4 °C 34716.7 hPa WNW 5.1 km/h 20.8 km/h 95 % 0 mm
17:37 -17 °C -17.4 °C 34716.7 hPa West 5.1 km/h 20.8 km/h 95 % 0 mm
17:42 -16.9 °C -17.3 °C 34716.7 hPa WNW 5.1 km/h 25.9 km/h 95 % 0 mm
17:52 -16.9 °C -17.3 °C 34716.7 hPa West 12.9 km/h 25.9 km/h 95 % 0 mm
17:57 -16.9 °C -17.3 °C 34716.7 hPa WNW 23.3 km/h 23.3 km/h 95 % 0 mm
18:07 -16.9 °C -17.3 °C 34716.7 hPa West 5.1 km/h 23.3 km/h 95 % 0 mm
18:12 -16.9 °C -17.3 °C 34716.7 hPa NW 15.6 km/h 23.3 km/h 95 % 7.62 mm
18:17 -16.9 °C -17.3 °C 34716.7 hPa WNW 25.9 km/h 33.6 km/h 95 % 7.62 mm
18:22 -16.9 °C -17.3 °C 34716.7 hPa WSW 7.7 km/h 33.6 km/h 95 % 7.62 mm
18:32 -17 °C -17.4 °C 34726.8 hPa WNW 20.8 km/h 28.5 km/h 95 % 7.62 mm
18:37 -17 °C -17.4 °C 34726.8 hPa West 15.6 km/h 33.6 km/h 95 % 7.62 mm
18:47 -17 °C -17.4 °C 34726.8 hPa West 20.8 km/h 33.6 km/h 95 % 7.62 mm
18:52 -17 °C -17.3 °C 34726.8 hPa WNW 23.3 km/h 33.6 km/h 96 % 7.62 mm
18:57 -17 °C -17.4 °C 34726.8 hPa West 12.9 km/h 33.6 km/h 95 % 7.62 mm
19:07 -17 °C -17.3 °C 34726.8 hPa NW 10.3 km/h 33.6 km/h 96 % 0 mm
19:12 -17 °C -17.3 °C 34726.8 hPa NW 20.8 km/h 38.8 km/h 96 % 0 mm
19:22 -17 °C -17.3 °C 34726.8 hPa WNW 12.9 km/h 38.8 km/h 96 % 0 mm
19:32 -17 °C -17.3 °C 34726.8 hPa WNW 7.7 km/h 31.1 km/h 96 % 0 mm
19:37 -17 °C -17.3 °C 34726.8 hPa West 10.3 km/h 28.5 km/h 96 % 0 mm
19:42 -16.9 °C -17.3 °C 34726.8 hPa West 20.8 km/h 28.5 km/h 96 % 0 mm
19:47 -16.9 °C -17.3 °C 34726.8 hPa NW 5.1 km/h 25.9 km/h 96 % 0 mm
19:52 -16.9 °C -17.2 °C 34726.8 hPa West 10.3 km/h 25.9 km/h 96 % 7.62 mm
20:02 -16.9 °C -17.2 °C 34740.4 hPa WNW 20.8 km/h 25.9 km/h 96 % 7.62 mm
20:07 -16.9 °C -17.2 °C 34740.4 hPa WNW 18.2 km/h 25.9 km/h 96 % 7.62 mm
20:12 -16.8 °C -17.2 °C 34740.4 hPa NW 12.9 km/h 25.9 km/h 96 % 7.62 mm
20:17 -16.8 °C -17.2 °C 34740.4 hPa NW 15.6 km/h 28.5 km/h 96 % 7.62 mm
20:22 -16.9 °C -17.2 °C 34740.4 hPa WNW 15.6 km/h 28.5 km/h 96 % 7.62 mm
20:32 -16.8 °C -17.2 °C 34740.4 hPa WNW 7.7 km/h 25.9 km/h 96 % 7.62 mm
20:37 -16.8 °C -17.2 °C 34740.4 hPa WNW 18.2 km/h 23.3 km/h 96 % 7.62 mm
20:42 -16.8 °C -17.2 °C 34740.4 hPa WNW 2.6 km/h 28.5 km/h 96 % 7.62 mm
20:47 -16.8 °C -17.2 °C 34750.5 hPa WNW 23.3 km/h 28.5 km/h 96 % 0 mm
20:57 -16.8 °C -17.1 °C 34750.5 hPa WNW 18.2 km/h 25.9 km/h 96 % 0 mm
21:02 -16.8 °C -17.1 °C 34750.5 hPa West 12.9 km/h 25.9 km/h 96 % 0 mm
21:07 -16.8 °C -17.1 °C 34740.4 hPa West 7.7 km/h 25.9 km/h 96 % 0 mm
21:12 -16.7 °C -17.1 °C 34750.5 hPa WNW 12.9 km/h 23.3 km/h 96 % 0 mm
21:22 -16.7 °C -17.1 °C 34760.7 hPa NW 7.7 km/h 23.3 km/h 96 % 0 mm
21:27 -16.7 °C -17 °C 34760.7 hPa WNW 7.7 km/h 23.3 km/h 96 % 0 mm
21:32 -16.7 °C -17 °C 34760.7 hPa NW 5.1 km/h 20.8 km/h 96 % 0 mm
21:37 -16.7 °C -17 °C 34760.7 hPa NW 12.9 km/h 23.3 km/h 96 % 0 mm
21:42 -16.6 °C -16.8 °C 34760.7 hPa WNW 5.1 km/h 23.3 km/h 97 % 7.62 mm
21:52 -16.6 °C -16.8 °C 34760.7 hPa WNW 10.3 km/h 20.8 km/h 97 % 7.62 mm
21:57 -16.6 °C -16.8 °C 34774.2 hPa West 7.7 km/h 20.8 km/h 97 % 7.62 mm
22:02 -16.6 °C -16.8 °C 34760.7 hPa WNW 7.7 km/h 20.8 km/h 97 % 7.62 mm
22:07 -16.6 °C -16.8 °C 34760.7 hPa WNW 2.6 km/h 18.2 km/h 97 % 7.62 mm
22:12 -16.5 °C -16.7 °C 34760.7 hPa WNW 12.9 km/h 18.2 km/h 97 % 7.62 mm
22:17 -16.5 °C -16.7 °C 34760.7 hPa WNW 12.9 km/h 23.3 km/h 97 % 7.62 mm
22:22 -16.4 °C -16.7 °C 34774.2 hPa WNW 12.9 km/h 23.3 km/h 97 % 7.62 mm
22:27 -16.5 °C -16.7 °C 34774.2 hPa West 5.1 km/h 23.3 km/h 97 % 7.62 mm
22:32 -16.5 °C -16.7 °C 34774.2 hPa North 2.6 km/h 20.8 km/h 97 % 7.62 mm
22:37 -16.5 °C -16.7 °C 34774.2 hPa WNW 5.1 km/h 20.8 km/h 97 % 7.62 mm
22:42 -16.5 °C -16.7 °C 34774.2 hPa WNW 2.6 km/h 12.9 km/h 97 % 0 mm
22:52 -16.6 °C -16.9 °C 34774.2 hPa WNW 5.1 km/h 12.9 km/h 96 % 0 mm
22:57 -16.6 °C -16.8 °C 34774.2 hPa NW 2.6 km/h 15.6 km/h 97 % 0 mm
23:02 -16.6 °C -16.9 °C 34774.2 hPa North 5.1 km/h 15.6 km/h 96 % 0 mm
23:07 -16.6 °C -16.9 °C 34774.2 hPa WNW 10.3 km/h 15.6 km/h 96 % 0 mm
23:12 -16.6 °C -16.9 °C 34774.2 hPa West 7.7 km/h 18.2 km/h 96 % 0 mm
23:17 -16.6 °C -16.9 °C 34774.2 hPa Calm   18.2 km/h 96 % 0 mm
23:22 -16.6 °C -16.9 °C 34784.4 hPa NW 7.7 km/h 18.2 km/h 96 % 0 mm
23:27 -16.6 °C -16.9 °C 34784.4 hPa NW 7.7 km/h 18.2 km/h 96 % 0 mm
23:32 -16.6 °C -16.9 °C 34784.4 hPa NNW 7.7 km/h 12.9 km/h 96 % 0 mm
23:37 -16.6 °C -16.9 °C 34784.4 hPa NW 5.1 km/h 12.9 km/h 96 % 0 mm
23:42 -16.6 °C -16.9 °C 34784.4 hPa NW 2.6 km/h 12.9 km/h 96 % 0 mm
Meteo18
Compliments of Weather Underground - 4 mb

Script developed by  Jim McMurry - jmcmurry@mwt.net Adapted for the template by  Wim van der Kuil - Leuven-Template.eu

You find our weather info also at:

European Weather Network

Weather Underground

Equipment we use:

Weather-station
Davis Vue

Weather-program
Meteobridge

Weather-server
Raspberry PI 2 B+

Provider
1 and 1

Davis Vue

Meteobridge

Raspberry PI 2 B+

1 and 1